📊 Raw Sensor Data
Showing records 50776 to 50800 of 85,139 total
| ID | Distance (ft) | Battery V | Battery A | Int Temp (°F) | Int Humid (%) | Ext Temp (°F) | Solar V | RSSI | SNR | Time Stamp |
|---|---|---|---|---|---|---|---|---|---|---|
| 34376 | 15.2 | 3.99 | -5 | 33 | 39 | 35 | 0.00 | -74 | 9 | 03/08/2025 03:30 AM |
| 34375 | 15.2 | 3.99 | -5 | 33 | 39 | 35 | 0.00 | -74 | 9 | 03/08/2025 03:15 AM |
| 34374 | 15.2 | 3.99 | -5 | 33 | 39 | 34 | 0.00 | -74 | 8 | 03/08/2025 03:00 AM |
| 34373 | 15.2 | 3.93 | -5 | 34 | 38 | 34 | 0.10 | -75 | 8 | 03/08/2025 02:45 AM |
| 34372 | 15.2 | 3.93 | -5 | 36 | 38 | 37 | 0.00 | -74 | 8 | 03/08/2025 02:30 AM |
| 34371 | 15.2 | 3.93 | -19 | 36 | 38 | 39 | 0.10 | -74 | 8 | 03/08/2025 02:15 AM |
| 34370 | 15.2 | 3.94 | -5 | 36 | 38 | 39 | 0.00 | -74 | 9 | 03/08/2025 02:00 AM |
| 34369 | 15.2 | 3.94 | -5 | 36 | 38 | 39 | 0.00 | -74 | 8 | 03/08/2025 01:45 AM |
| 34368 | 15.2 | 4.00 | -5 | 37 | 38 | 39 | 0.00 | -74 | 8 | 03/08/2025 01:30 AM |
| 34367 | 15.2 | 4.00 | -5 | 35 | 39 | 38 | 0.00 | -74 | 8 | 03/08/2025 01:15 AM |
| 34366 | 15.2 | 4.00 | -5 | 35 | 39 | 40 | 0.00 | -74 | 8 | 03/08/2025 01:00 AM |
| 34365 | 15.2 | 4.00 | -5 | 36 | 40 | 38 | 0.00 | -74 | 8 | 03/08/2025 12:45 AM |
| 34364 | 15.1 | 3.94 | -5 | 36 | 40 | 38 | 0.00 | -74 | 9 | 03/08/2025 12:30 AM |
| 34363 | 15.2 | 3.94 | -5 | 37 | 40 | 36 | 0.00 | -74 | 8 | 03/08/2025 12:15 AM |
| 34362 | 15.1 | 3.94 | -5 | 40 | 40 | 40 | 0.00 | -74 | 7 | 03/08/2025 12:00 AM |
| 34361 | 15.2 | 3.95 | -5 | 42 | 39 | 45 | 0.00 | -73 | 8 | 03/07/2025 11:45 PM |
| 34360 | 15.2 | 4.01 | -5 | 43 | 39 | 44 | 0.00 | -73 | 8 | 03/07/2025 11:30 PM |
| 34359 | 15.1 | 3.95 | -5 | 43 | 39 | 45 | 0.00 | -73 | 8 | 03/07/2025 11:15 PM |
| 34358 | 15.1 | 3.95 | -5 | 44 | 39 | 45 | 0.00 | -73 | 8 | 03/07/2025 11:00 PM |
| 34357 | 15.1 | 3.95 | -5 | 44 | 39 | 46 | 0.00 | -73 | 8 | 03/07/2025 10:45 PM |
| 34356 | 15.2 | 4.01 | -5 | 43 | 40 | 46 | 0.00 | -72 | 8 | 03/07/2025 10:30 PM |
| 34355 | 15.1 | 3.95 | -5 | 44 | 40 | 46 | 0.00 | -73 | 8 | 03/07/2025 10:15 PM |
| 34354 | 15.1 | 3.95 | -5 | 45 | 39 | 47 | 0.00 | -74 | 8 | 03/07/2025 10:00 PM |
| 34353 | 15.1 | 3.95 | -5 | 46 | 40 | 48 | 0.10 | -72 | 8 | 03/07/2025 09:45 PM |
| 34352 | 15.1 | 4.01 | -5 | 46 | 40 | 47 | 0.00 | -74 | 8 | 03/07/2025 09:30 PM |